When you browse on this site, cookies collect data to enhance your experience and personalize the content and advertising you see.
Visit our Privacy Policy to learn more. By continuing to use the site, you agree to this use of cookies and data.
  • In Hungary
  • List of Countries
  • For 7 days
  • Water Temperature
  • Satellite Maps
  • Weather Map
  • News
  • Weather Widgets
  • user-avatar
    Login

    Hourly Weather Kisangani

    Today, 21 November, Wednesday

    Time Temperature Precipitation Wind Pressure Humidity
    00:00 +22°C° 0 mm 0 mps 717 mmHg 95%
    01:00 +22°C° 0 mm 0 mps 717 mmHg 96%
    02:00 +22°C° 0 mm 0 mps 717 mmHg 96%
    03:00 +22°C° 0.6 mm 0 mps 717 mmHg 96%
    04:00 +21°C° 0.6 mm 0 mps 717 mmHg 97%
    05:00 +23°C° 0.6 mm 1 mps 717 mmHg 98%
    06:00 +24°C° 0.1 mm 1 mps 717 mmHg 96%
    07:00 +25°C° 0.1 mm 1 mps 718 mmHg 94%
    08:00 +26°C° 0 mm 1 mps 718 mmHg 91%
    09:00 +26°C° 0 mm 0 mps 718 mmHg 81%
    10:00 +28°C° 0 mm 0 mps 718 mmHg 70%
    11:00 +31°C° 0 mm 0 mps 718 mmHg 60%
    12:00 +31°C° 0 mm 0 mps 718 mmHg 58%
    13:00 +32°C° 0 mm 0 mps 717 mmHg 55%
    14:00 +32°C° 0 mm 0 mps 716 mmHg 52%
    15:00 +31°C° 0 mm 0 mps 716 mmHg 56%
    16:00 +31°C° 0 mm 0 mps 715 mmHg 59%
    17:00 +30°C° 0 mm 0 mps 715 mmHg 63%
    18:00 +28°C° 0 mm 0 mps 715 mmHg 66%
    19:00 +27°C° 0 mm 0 mps 715 mmHg 70%
    20:00 +25°C° 0 mm 0 mps 716 mmHg 73%
    21:00 +25°C° 0 mm 0 mps 716 mmHg 75%
    22:00 +25°C° 0 mm 0 mps 716 mmHg 77%
    23:00 +24°C° 0 mm 0 mps 716 mmHg 79%

    Tomorrow, 22 November, Thursday

    Time Temperature Precipitation Wind Pressure Humidity
    00:00 +24°C° 0 mm 0 mps 716 mmHg 80%
    01:00 +23°C° 0 mm 0 mps 716 mmHg 82%
    02:00 +23°C° 0 mm 0 mps 716 mmHg 83%
    03:00 +23°C° 0.1 mm 0 mps 716 mmHg 85%
    04:00 +22°C° 0.1 mm 0 mps 716 mmHg 87%
    05:00 +22°C° 0.1 mm 0 mps 716 mmHg 89%
    06:00 +25°C° 0.4 mm 1 mps 717 mmHg 89%
    07:00 +25°C° 0.4 mm 1 mps 717 mmHg 90%
    08:00 +26°C° 0.4 mm 1 mps 718 mmHg 91%
    09:00 +27°C° 0.9 mm 1 mps 718 mmHg 89%
    10:00 +28°C° 0.9 mm 1 mps 718 mmHg 88%
    11:00 +29°C° 0.9 mm 1 mps 718 mmHg 87%
    12:00 +30°C° 0.4 mm 1 mps 717 mmHg 79%
    13:00 +30°C° 0.4 mm 1 mps 717 mmHg 71%
    14:00 +31°C° 0.4 mm 1 mps 716 mmHg 63%
    15:00 +31°C° 0 mm 1 mps 716 mmHg 65%
    16:00 +30°C° 0 mm 2 mps 716 mmHg 67%
    17:00 +29°C° 0 mm 2 mps 716 mmHg 70%
    18:00 +28°C° 0.1 mm 2 mps 716 mmHg 76%
    19:00 +26°C° 0.1 mm 1 mps 717 mmHg 83%
    20:00 +25°C° 0.1 mm 1 mps 717 mmHg 89%
    21:00 +24°C° 0.2 mm 1 mps 718 mmHg 92%
    22:00 +24°C° 0.2 mm 1 mps 718 mmHg 94%
    23:00 +23°C° 0.2 mm 1 mps 718 mmHg 97%

    Day after tomorrow, 23 November, Friday

    Time Temperature Precipitation Wind Pressure Humidity
    00:00 +23°C° 0.3 mm 1 mps 718 mmHg 98%
    01:00 +23°C° 0.3 mm 1 mps 718 mmHg 98%
    02:00 +21°C° 0.3 mm 0 mps 717 mmHg 99%
    03:00 +23°C° 0.1 mm 1 mps 717 mmHg 99%
    04:00 +22°C° 0.1 mm 1 mps 717 mmHg 99%
    05:00 +22°C° 0.1 mm 1 mps 717 mmHg 99%
    06:00 +23°C° 0 mm 1 mps 718 mmHg 97%
    07:00 +24°C° 0 mm 1 mps 718 mmHg 95%
    08:00 +24°C° 0 mm 1 mps 719 mmHg 93%
    09:00 +27°C° 0 mm 1 mps 719 mmHg 79%
    10:00 +30°C° 0 mm 1 mps 719 mmHg 66%
    11:00 +33°C° 0 mm 1 mps 719 mmHg 52%
    12:00 +34°C° 0 mm 1 mps 718 mmHg 47%
    13:00 +34°C° 0 mm 0 mps 717 mmHg 43%
    14:00 +36°C° 0 mm 0 mps 716 mmHg 39%
    15:00 +34°C° 0 mm 0 mps 716 mmHg 46%
    16:00 +32°C° 0 mm 0 mps 716 mmHg 54%
    17:00 +30°C° 0 mm 0 mps 715 mmHg 61%
    18:00 +29°C° 0 mm 0 mps 716 mmHg 64%
    19:00 +27°C° 0 mm 0 mps 716 mmHg 68%
    20:00 +25°C° 0 mm 0 mps 717 mmHg 71%
    21:00 +25°C° 0 mm 0 mps 717 mmHg 73%
    22:00 +25°C° 0 mm 0 mps 717 mmHg 75%
    23:00 +26°C° 0 mm 1 mps 718 mmHg 76%

    24 November, Saturday

    Time Temperature Precipitation Wind Pressure Humidity
    00:00 +26°C° 0 mm 1 mps 717 mmHg 80%
    01:00 +25°C° 0 mm 1 mps 717 mmHg 84%
    02:00 +24°C° 0 mm 1 mps 717 mmHg 87%
    03:00 +24°C° 0 mm 1 mps 717 mmHg 89%
    04:00 +24°C° 0 mm 1 mps 717 mmHg 91%
    05:00 +23°C° 0 mm 1 mps 717 mmHg 94%
    06:00 +24°C° 0.2 mm 1 mps 717 mmHg 93%
    07:00 +24°C° 0.2 mm 1 mps 718 mmHg 92%
    08:00 +25°C° 0.2 mm 1 mps 718 mmHg 91%
    09:00 +27°C° 0 mm 1 mps 718 mmHg 79%
    10:00 +30°C° 0 mm 1 mps 718 mmHg 68%
    11:00 +32°C° 0 mm 2 mps 719 mmHg 57%
    12:00 +33°C° 0 mm 1 mps 718 mmHg 51%
    13:00 +35°C° 0 mm 1 mps 717 mmHg 46%
    14:00 +36°C° 0 mm 1 mps 716 mmHg 41%
    15:00 +35°C° 0 mm 1 mps 716 mmHg 44%
    16:00 +35°C° 0 mm 1 mps 715 mmHg 48%
    17:00 +34°C° 0 mm 1 mps 715 mmHg 52%
    18:00 +30°C° 0 mm 0 mps 716 mmHg 57%
    19:00 +28°C° 0 mm 0 mps 716 mmHg 62%
    20:00 +26°C° 0 mm 0 mps 717 mmHg 68%
    21:00 +25°C° 0 mm 0 mps 717 mmHg 69%
    22:00 +25°C° 0 mm 0 mps 717 mmHg 70%
    23:00 +25°C° 0 mm 0 mps 717 mmHg 71%

    25 November, Sunday

    Time Temperature Precipitation Wind Pressure Humidity
    00:00 +24°C° 0 mm 0 mps 717 mmHg 73%
    01:00 +24°C° 0 mm 0 mps 716 mmHg 76%
    02:00 +23°C° 0 mm 0 mps 716 mmHg 78%
    03:00 +22°C° 0.4 mm 0 mps 716 mmHg 84%
    04:00 +22°C° 0.4 mm 0 mps 716 mmHg 89%
    05:00 +21°C° 0.4 mm 0 mps 716 mmHg 94%
    06:00 +24°C° 0 mm 1 mps 717 mmHg 92%
    07:00 +25°C° 0 mm 1 mps 717 mmHg 89%
    08:00 +26°C° 0 mm 1 mps 718 mmHg 87%
    09:00 +29°C° 0 mm 1 mps 718 mmHg 75%
    10:00 +31°C° 0 mm 1 mps 718 mmHg 62%
    11:00 +34°C° 0 mm 1 mps 718 mmHg 50%
    12:00 +35°C° 0 mm 1 mps 717 mmHg 45%
    13:00 +36°C° 0 mm 1 mps 716 mmHg 41%
    14:00 +39°C° 0 mm 1 mps 715 mmHg 36%
    15:00 +34°C° 0 mm 0 mps 715 mmHg 43%
    16:00 +33°C° 0 mm 0 mps 715 mmHg 49%
    17:00 +31°C° 0 mm 0 mps 714 mmHg 56%
    18:00 +30°C° 0.1 mm 0 mps 715 mmHg 60%
    19:00 +30°C° 0.1 mm 1 mps 715 mmHg 64%
    20:00 +28°C° 0.1 mm 1 mps 715 mmHg 68%
    21:00 +28°C° 0.3 mm 1 mps 715 mmHg 74%
    22:00 +27°C° 0.3 mm 1 mps 716 mmHg 80%
    23:00 +26°C° 0.3 mm 1 mps 716 mmHg 86%

    26 November, Monday

    Time Temperature Precipitation Wind Pressure Humidity
    00:00 +25°C° 0.2 mm 1 mps 715 mmHg 87%
    01:00 +25°C° 0.2 mm 1 mps 715 mmHg 89%
    02:00 +25°C° 0.2 mm 1 mps 715 mmHg 91%
    03:00 +25°C° 0.5 mm 1 mps 715 mmHg 92%
    04:00 +24°C° 0.5 mm 1 mps 715 mmHg 94%
    05:00 +24°C° 0.5 mm 1 mps 716 mmHg 96%
    06:00 +24°C° 0.8 mm 1 mps 716 mmHg 95%
    07:00 +25°C° 0.8 mm 1 mps 717 mmHg 95%
    08:00 +25°C° 0.8 mm 2 mps 717 mmHg 94%
    09:00 +28°C° 0 mm 2 mps 717 mmHg 81%
    10:00 +30°C° 0 mm 2 mps 717 mmHg 69%
    11:00 +34°C° 0 mm 2 mps 717 mmHg 56%
    12:00 +34°C° 0.1 mm 1 mps 716 mmHg 53%
    13:00 +34°C° 0.1 mm 1 mps 716 mmHg 50%
    14:00 +35°C° 0.1 mm 1 mps 715 mmHg 47%
    15:00 +34°C° 0.2 mm 1 mps 715 mmHg 56%
    16:00 +32°C° 0.2 mm 1 mps 715 mmHg 65%
    17:00 +30°C° 0.2 mm 1 mps 715 mmHg 74%
    18:00 +29°C° 0.5 mm 1 mps 715 mmHg 81%
    19:00 +27°C° 0.5 mm 1 mps 715 mmHg 87%
    20:00 +26°C° 0.5 mm 1 mps 716 mmHg 94%
    21:00 +23°C° 0 mm 0 mps 716 mmHg 94%
    22:00 +23°C° 0 mm 0 mps 716 mmHg 94%
    23:00 +23°C° 0 mm 0 mps 715 mmHg 94%
    Show more